When you browse on this site, cookies collect data to enhance your experience and personalize the content and advertising you see.
Visit our Privacy Policy to learn more. By continuing to use the site, you agree to this use of cookies and data.
  • In Romania
  • List of Countries
  • For 7 days
  • Water Temperature
  • Satellite Maps
  • Weather Map
  • Weather Widgets
  • user-avatar
    Login

    Hourly Weather Lysogorskiy

    Today, 21 November, Wednesday

    Time Temperature Precipitation Wind Pressure Humidity
    00:00 +6°C° 0.1 mm 2 mps 732 mmHg 93%
    01:00 +6°C° 0 mm 2 mps 732 mmHg 93%
    02:00 +6°C° 0 mm 2 mps 732 mmHg 93%
    03:00 +5°C° 0 mm 3 mps 732 mmHg 93%
    04:00 +6°C° 0 mm 2 mps 733 mmHg 93%
    05:00 +6°C° 0 mm 2 mps 733 mmHg 93%
    06:00 +6°C° 0 mm 2 mps 733 mmHg 93%
    07:00 +6°C° 0 mm 2 mps 733 mmHg 92%
    08:00 +6°C° 0 mm 2 mps 733 mmHg 90%
    09:00 +6°C° 0 mm 2 mps 733 mmHg 89%
    10:00 +7°C° 0 mm 2 mps 733 mmHg 86%
    11:00 +7°C° 0 mm 2 mps 733 mmHg 83%
    12:00 +7°C° 0 mm 2 mps 732 mmHg 81%
    13:00 +7°C° 0 mm 2 mps 732 mmHg 81%
    14:00 +7°C° 0 mm 2 mps 732 mmHg 82%
    15:00 +7°C° 0 mm 2 mps 732 mmHg 82%
    16:00 +6°C° 0 mm 2 mps 732 mmHg 85%
    17:00 +6°C° 0 mm 2 mps 732 mmHg 88%
    18:00 +5°C° 0 mm 2 mps 732 mmHg 90%
    19:00 +5°C° 0 mm 2 mps 732 mmHg 91%
    20:00 +5°C° 0 mm 2 mps 732 mmHg 93%
    21:00 +5°C° 0 mm 1 mps 732 mmHg 94%
    22:00 +5°C° 0 mm 1 mps 731 mmHg 94%
    23:00 +4°C° 0 mm 2 mps 731 mmHg 94%

    Tomorrow, 22 November, Thursday

    Time Temperature Precipitation Wind Pressure Humidity
    00:00 +4°C° 0 mm 2 mps 731 mmHg 94%
    01:00 +5°C° 0 mm 1 mps 731 mmHg 93%
    02:00 +5°C° 0 mm 1 mps 731 mmHg 92%
    03:00 +5°C° 0 mm 1 mps 731 mmHg 92%
    04:00 +5°C° 0 mm 1 mps 731 mmHg 92%
    05:00 +5°C° 0 mm 1 mps 731 mmHg 92%
    06:00 +4°C° 0 mm 1 mps 730 mmHg 92%
    07:00 +5°C° 0 mm 1 mps 731 mmHg 91%
    08:00 +5°C° 0 mm 1 mps 731 mmHg 89%
    09:00 +5°C° 0 mm 1 mps 731 mmHg 88%
    10:00 +6°C° 0.2 mm 1 mps 730 mmHg 86%
    11:00 +6°C° 0.2 mm 1 mps 730 mmHg 83%
    12:00 +7°C° 0.2 mm 1 mps 730 mmHg 81%
    13:00 +7°C° 0.3 mm 1 mps 730 mmHg 81%
    14:00 +7°C° 0.3 mm 1 mps 730 mmHg 82%
    15:00 +7°C° 0.3 mm 1 mps 729 mmHg 82%
    16:00 +6°C° 0.4 mm 1 mps 730 mmHg 84%
    17:00 +6°C° 0.4 mm 1 mps 730 mmHg 86%
    18:00 +6°C° 0.4 mm 1 mps 730 mmHg 87%
    19:00 +5°C° 0.2 mm 1 mps 731 mmHg 89%
    20:00 +5°C° 0.2 mm 1 mps 731 mmHg 90%
    21:00 +3°C° 0.2 mm 0 mps 731 mmHg 92%
    22:00 +4°C° 0 mm 1 mps 731 mmHg 91%
    23:00 +4°C° 0 mm 1 mps 731 mmHg 90%

    Day after tomorrow, 23 November, Friday

    Time Temperature Precipitation Wind Pressure Humidity
    00:00 +3°C° 0 mm 1 mps 731 mmHg 90%
    01:00 +3°C° 0 mm 1 mps 731 mmHg 89%
    02:00 +3°C° 0 mm 1 mps 731 mmHg 89%
    03:00 +3°C° 0 mm 1 mps 731 mmHg 89%
    04:00 +3°C° 0 mm 1 mps 731 mmHg 89%
    05:00 +1°C° 0 mm 2 mps 731 mmHg 89%
    06:00 +1°C° 0 mm 2 mps 731 mmHg 89%
    07:00 0°C° 0 mm 3 mps 732 mmHg 85%
    08:00 +1°C° 0 mm 3 mps 732 mmHg 81%
    09:00 0°C° 0 mm 4 mps 733 mmHg 76%
    10:00 +1°C° 0 mm 5 mps 733 mmHg 70%
    11:00 +2°C° 0 mm 5 mps 733 mmHg 64%
    12:00 +3°C° 0 mm 6 mps 733 mmHg 58%
    13:00 +3°C° 0 mm 6 mps 734 mmHg 57%
    14:00 +3°C° 0 mm 5 mps 734 mmHg 56%
    15:00 +3°C° 0 mm 5 mps 735 mmHg 54%
    16:00 +1°C° 0 mm 4 mps 736 mmHg 60%
    17:00 0°C° 0 mm 4 mps 737 mmHg 65%
    18:00 0°C° 0 mm 3 mps 737 mmHg 70%
    19:00 -1°C° 0 mm 2 mps 738 mmHg 74%
    20:00 -1°C° 0 mm 2 mps 739 mmHg 77%
    21:00 0°C° 0 mm 1 mps 739 mmHg 81%
    22:00 0°C° 0 mm 1 mps 740 mmHg 82%
    23:00 0°C° 0 mm 1 mps 740 mmHg 84%

    24 November, Saturday

    Time Temperature Precipitation Wind Pressure Humidity
    00:00 -1°C° 0 mm 1 mps 740 mmHg 85%
    01:00 -1°C° 0 mm 1 mps 740 mmHg 85%
    02:00 -1°C° 0 mm 1 mps 740 mmHg 85%
    03:00 -3°C° 0 mm 2 mps 740 mmHg 85%
    04:00 -3°C° 0 mm 2 mps 740 mmHg 85%
    05:00 -3°C° 0 mm 2 mps 740 mmHg 85%
    06:00 -3°C° 0 mm 2 mps 740 mmHg 85%
    07:00 -2°C° 0 mm 2 mps 741 mmHg 82%
    08:00 -2°C° 0 mm 2 mps 741 mmHg 80%
    09:00 -1°C° 0 mm 3 mps 741 mmHg 77%
    10:00 0°C° 0 mm 3 mps 740 mmHg 72%
    11:00 +1°C° 0 mm 3 mps 740 mmHg 67%
    12:00 +3°C° 0 mm 3 mps 739 mmHg 62%
    13:00 +3°C° 0 mm 3 mps 739 mmHg 63%
    14:00 +3°C° 0 mm 3 mps 739 mmHg 64%
    15:00 +3°C° 0 mm 4 mps 739 mmHg 65%
    16:00 +2°C° 0 mm 3 mps 739 mmHg 69%
    17:00 0°C° 0 mm 3 mps 739 mmHg 74%
    18:00 -1°C° 0 mm 3 mps 739 mmHg 79%
    19:00 -1°C° 0 mm 3 mps 739 mmHg 78%
    20:00 -1°C° 0 mm 3 mps 738 mmHg 77%
    21:00 -1°C° 0 mm 3 mps 738 mmHg 76%
    22:00 -2°C° 0 mm 2 mps 738 mmHg 74%
    23:00 -2°C° 0 mm 2 mps 738 mmHg 73%

    25 November, Sunday

    Time Temperature Precipitation Wind Pressure Humidity
    00:00 -2°C° 0 mm 2 mps 737 mmHg 71%
    01:00 -1°C° 0 mm 2 mps 737 mmHg 70%
    02:00 -1°C° 0 mm 2 mps 737 mmHg 70%
    03:00 +1°C° 0 mm 1 mps 736 mmHg 69%
    04:00 +1°C° 0 mm 1 mps 736 mmHg 69%
    05:00 +1°C° 0 mm 1 mps 736 mmHg 69%
    06:00 +1°C° 0 mm 1 mps 735 mmHg 69%
    07:00 +2°C° 0 mm 1 mps 735 mmHg 67%
    08:00 +2°C° 0 mm 1 mps 735 mmHg 64%
    09:00 +3°C° 0 mm 1 mps 735 mmHg 62%
    10:00 +5°C° 0 mm 1 mps 734 mmHg 57%
    11:00 +6°C° 0 mm 1 mps 734 mmHg 52%
    12:00 +8°C° 0 mm 1 mps 734 mmHg 48%
    13:00 +8°C° 0 mm 1 mps 733 mmHg 50%
    14:00 +8°C° 0 mm 1 mps 733 mmHg 52%
    15:00 +8°C° 0 mm 1 mps 733 mmHg 55%
    16:00 +6°C° 0 mm 1 mps 733 mmHg 59%
    17:00 +5°C° 0 mm 1 mps 733 mmHg 64%
    18:00 +4°C° 0 mm 1 mps 733 mmHg 68%
    19:00 +3°C° 0 mm 1 mps 733 mmHg 68%
    20:00 +3°C° 0 mm 1 mps 732 mmHg 68%
    21:00 +3°C° 0 mm 1 mps 732 mmHg 69%
    22:00 +3°C° 0 mm 1 mps 732 mmHg 67%
    23:00 +2°C° 0 mm 0 mps 732 mmHg 66%

    26 November, Monday

    Time Temperature Precipitation Wind Pressure Humidity
    00:00 +2°C° 0 mm 0 mps 732 mmHg 65%
    01:00 +2°C° 0 mm 0 mps 732 mmHg 63%
    02:00 +3°C° 0 mm 0 mps 732 mmHg 62%
    03:00 +3°C° 0 mm 0 mps 732 mmHg 61%
    04:00 +3°C° 0 mm 0 mps 731 mmHg 60%
    05:00 +3°C° 0 mm 0 mps 731 mmHg 59%
    06:00 +3°C° 0 mm 0 mps 731 mmHg 59%
    07:00 +4°C° 0 mm 0 mps 731 mmHg 57%
    08:00 +4°C° 0 mm 0 mps 731 mmHg 55%
    09:00 +6°C° 0 mm 1 mps 731 mmHg 52%
    10:00 +8°C° 0 mm 1 mps 731 mmHg 48%
    11:00 +9°C° 0 mm 1 mps 731 mmHg 44%
    12:00 +10°C° 0 mm 1 mps 730 mmHg 40%
    13:00 +10°C° 0 mm 1 mps 730 mmHg 42%
    14:00 +10°C° 0 mm 1 mps 730 mmHg 43%
    15:00 +10°C° 0 mm 1 mps 730 mmHg 44%
    16:00 +9°C° 0 mm 1 mps 730 mmHg 47%
    17:00 +8°C° 0 mm 1 mps 730 mmHg 50%
    18:00 +7°C° 0 mm 1 mps 730 mmHg 53%
    19:00 +6°C° 0 mm 1 mps 730 mmHg 55%
    20:00 +6°C° 0 mm 1 mps 730 mmHg 56%
    21:00 +6°C° 0 mm 1 mps 730 mmHg 57%
    22:00 +6°C° 0 mm 1 mps 730 mmHg 57%
    23:00 +6°C° 0 mm 1 mps 730 mmHg 58%
    Show more